Killeen, TX

1:28 AM CST on December 06, 2016 (GMT -0600)
Killeen-Fort Hood Regional

Weather History for KGRK - September, 2013

Change the Weather History Date:

Saturday, September 14, 2013

  Actual Average Record
Temperature  
Mean Temperature 86 °F -  
Max Temperature 96 °F 87 °F 100 °F (2011)
Min Temperature 75 °F 67 °F 32 °F (1996)
Cooling Degree Days 20    
Growing Degree Days 36 (Base 50)    
Moisture  
Dew Point 62 °F    
Average Humidity 46    
Maximum Humidity 65    
Minimum Humidity 30    
Precipitation  
Precipitation 0.00 in - - ()
Sea Level Pressure  
Sea Level Pressure 29.90 in    
Wind  
Wind Speed 4 mph (SE)    
Max Wind Speed 18 mph    
Max Gust Speed 21 mph    
Visibility 7 miles    
Events      
Averages and records for this station are not official NWS values.
T = Trace of Precipitation, MM = Missing Value Source: NWS Daily Summary

Daily Weather History Graph

Daily Weather History Graph

Search for Another Location

Airport or City:

Trip Planner

Search our weather history database for the weather conditions in past years. The results will help you decide how hot, cold, wet, or windy it might be!

Date:

Astronomy

Sep. 14, 2013 Rise Set
Actual Time 7:15 AM CDT 7:37 PM CDT
Civil Twilight 6:50 AM CDT 8:02 PM CDT
Nautical Twilight 6:22 AM CDT 8:30 PM CDT
Astronomical Twilight 5:53 AM CDT 8:59 PM CDT
Moon 4:06 PM CDT (9/14) 2:04 AM CDT (9/14)
Length of Visible Light 13h 11m
Length of Day
12h 22m
Waxing Gibbous, 72% of the Moon is Illuminated
Sep 14
Waxing Gibbous
Sep 19
Full
Sep 26
Last Quarter
Oct 4
New
Oct 11
First Quarter

Hourly Weather History & Observations

Time (CDT) Temp. Heat Index Dew Point Humidity Pressure Visibility Wind Dir Wind Speed Gust Speed Precip Events Conditions
12:55 AM 82.4 °F 82.9 °F 60.8 °F 48% 29.88 in 7.0 mi Calm Calm - N/A   Scattered Clouds
1:55 AM 80.6 °F 81.5 °F 60.8 °F 51% 29.88 in 7.0 mi Calm Calm - N/A   Scattered Clouds
2:55 AM 80.6 °F 81.8 °F 62.6 °F 54% 29.88 in 7.0 mi Calm Calm - N/A   Partly Cloudy
3:55 AM 77.0 °F - 60.8 °F 57% 29.88 in 7.0 mi Calm Calm - N/A   Clear
4:55 AM 77.0 °F - 62.6 °F 61% 29.88 in 7.0 mi SSE 3.5 mph - N/A   Clear
5:55 AM 75.2 °F - 62.6 °F 65% 29.89 in 7.0 mi Calm Calm - N/A   Scattered Clouds
6:55 AM 77.0 °F - 62.6 °F 61% 29.90 in 7.0 mi WSW 3.5 mph - N/A   Mostly Cloudy
7:55 AM 75.2 °F - 62.6 °F 65% 29.92 in 7.0 mi Calm Calm - N/A   Partly Cloudy
8:55 AM 82.4 °F 83.9 °F 64.4 °F 54% 29.93 in 7.0 mi West 4.6 mph - N/A   Partly Cloudy
9:55 AM 87.8 °F 88.5 °F 62.6 °F 43% 29.94 in 7.0 mi West 6.9 mph - N/A   Clear
10:55 AM 91.4 °F 92.1 °F 62.6 °F 38% 29.94 in 7.0 mi Calm Calm - N/A   Clear
11:55 AM 91.4 °F 91.4 °F 60.8 °F 36% 29.94 in 7.0 mi SSW 8.1 mph - N/A   Partly Cloudy
12:55 PM 93.2 °F 93.3 °F 60.8 °F 34% 29.92 in 7.0 mi ENE 3.5 mph - N/A   Partly Cloudy
1:55 PM 96.8 °F 97.1 °F 60.8 °F 30% 29.90 in 7.0 mi NE 6.9 mph - N/A   Partly Cloudy
2:55 PM 95.0 °F 95.2 °F 60.8 °F 32% 29.88 in 7.0 mi East 18.4 mph - N/A   Partly Cloudy
3:55 PM 95.0 °F 95.2 °F 60.8 °F 32% 29.86 in 7.0 mi East 10.4 mph - N/A   Scattered Clouds
4:55 PM 96.8 °F 97.1 °F 60.8 °F 30% 29.84 in 7.0 mi East 15.0 mph 20.7 mph N/A   Scattered Clouds
5:55 PM 95.0 °F 95.2 °F 60.8 °F 32% 29.85 in 7.0 mi East 11.5 mph - N/A   Partly Cloudy
6:55 PM 93.2 °F 93.3 °F 60.8 °F 34% 29.86 in 7.0 mi East 8.1 mph - N/A   Partly Cloudy
7:55 PM 91.4 °F 91.4 °F 60.8 °F 36% 29.87 in 7.0 mi ESE 6.9 mph - N/A   Partly Cloudy
8:55 PM 87.8 °F 89.4 °F 64.4 °F 46% 29.92 in 7.0 mi SE 11.5 mph - N/A   Scattered Clouds
9:55 PM 87.8 °F 89.4 °F 64.4 °F 46% 29.92 in 7.0 mi SE 12.7 mph - N/A   Scattered Clouds
10:55 PM 84.2 °F 86.6 °F 66.2 °F 55% 29.93 in 7.0 mi SSE 11.5 mph - N/A   Partly Cloudy
11:55 PM 82.4 °F 84.6 °F 66.2 °F 58% 29.93 in 7.0 mi South 11.5 mph - N/A   Partly Cloudy